Regional Weather Roundup
Issued by NWS

Home | Current Version | Previous Version | Graphics & Text | Print | Product List | Glossary On
Versions: 1 2 3 4 5 6 7 8 9 10 11 12 13 14 15 16 17 18 19 20 21 22 23 24 25 26 27 28 29 30 31 32 33 34 35 36 37 38 39 40 41 42 43 44 45 46 47 48 49 50
000
ASUS43 KLOT 260212
RWRIL

ILLINOIS REGIONAL WEATHER ROUNDUP
NATIONAL WEATHER SERVICE CHICAGO/ROMEOVILLE IL
900 PM CDT SAT APR 25 2015

NOTE: "FAIR" INDICATES FEW OR NO CLOUDS BELOW 12,000 FEET WITH NO
SIGNIFICANT WEATHER AND/OR OBSTRUCTIONS TO VISIBILITY.

* THESE STATIONS ARE NOT UNDER NWS QUALITY CONTROL. THEY ALSO MAY NOT
  REPORT WEATHER SUCH AS PRECIPITATION OR FOG.

ILZ001-002-007-009-015-016-024-260300-
NORTHWEST ILLINOIS

CITY           SKY/WX    TMP DP  RH WIND       PRES   REMARKS
MOLINE         CLOUDY    47  38  71 NE10      29.83R
STERLING*      CLOUDY    45  36  70 NE12      29.84R
SAVANNA*       CLOUDY    46  35  64 NE10      29.86R
$$

ILZ003-004-008-010-011-017-018-260300-
NORTH CENTRAL ILLINOIS

CITY           SKY/WX    TMP DP  RH WIND       PRES   REMARKS
ROCKFORD       CLOUDY    45  29  53 NE10      29.88R
FREEPORT*      CLOUDY    43  34  71 NE9       29.87S
ROCHELLE*      CLOUDY    42  33  71 NE14      29.85R
DE KALB*       CLOUDY    40  31  71 NE15G21   29.84S
PERU*          CLOUDY    46  41  82 NE16      29.82R
$$

ILZ005-006-012>014-019>023-260300-
NORTHEAST ILLINOIS

CITY           SKY/WX    TMP DP  RH WIND       PRES   REMARKS
CHICAGO-OHARE  CLOUDY    42  31  64 NE12      29.84R
CHICAGO-MIDWAY CLOUDY    44  34  67 N8        29.84R
AURORA         CLOUDY    44  34  67 NE12      29.83R
LANSING*       CLOUDY    42  36  80 NE8       29.82R
JOLIET*        CLOUDY    45  37  75 NE14      29.82R
WAUKEGAN       CLOUDY    40  26  57 N9G20     29.85R
DUPAGE AIRPORT CLOUDY    42  31  64 NE13      29.83R
KANKAKEE*      CLOUDY    45  42  90 NE14      29.79R
WHEELING       CLOUDY    42  28  57 N10       29.86R
MORRIS*        CLOUDY    44  39  83 NE9       29.79R
ROMEOVILLE*    CLOUDY    42  34  73 NE15      29.82R
NORTHERLY ISL    N/A     40  34  79 N14         N/A
$$

LMZ740>746-260300-
SOUTHERN LAKE MICHIGAN

STATION/POSITION SKY/WX   TEMP    WIND        PRES    VSBY  WAVE
                          AIR SEA DIR/SP/G                  HT/PER
                          (F)     (DEG/KT/KT) (MB)    (MI)  (FT/S)
HARRISON CRIB              39      10/ 19/ 22   N/A
BURNHAM HARBOR             40     350/ 12/ 16   N/A
CALUMET HARBOR             41     360/ 12/ 15   N/A
BURNS HARBOR               42      10/ 15/ 16 1010.2R
MICHIGAN CITY              43     350/ 12/ 14   N/A
MICHIGAN CITY 6N           40 44   20/ 12/ 16   N/A           2/ 4
$$

ILZ025>027-034>036-040-047-049-050-058-095>099-260300-
WEST-CENTRAL ILLINOIS

CITY           SKY/WX    TMP DP  RH WIND       PRES   REMARKS
QUINCY         CLOUDY    48  44  86 NE17G26   29.74R
GALESBURG*     CLOUDY    46  42  86 NE16G22   29.79R
MACOMB*        CLOUDY    47  44  90 NE18      29.80R
JACKSONVILLE*  CLOUDY    49  46  89 NE20G25   29.73R
PITTSFIELD*    CLOUDY    48  46  90 NE13G22   29.73R
$$

ILZ028>032-037-038-041>044-048-051>054-059>061-260300-
CENTRAL ILLINOIS

CITY           SKY/WX    TMP DP  RH WIND       PRES   REMARKS
PONTIAC        CLOUDY    46  43  89 NE21      29.78R
BLOOMINGTON    CLOUDY    46  43  90 NE23      29.76R
DECATUR        CLOUDY    47  43  86 NE21      29.71R
PEORIA         CLOUDY    48  41  76 NE15G29   29.78R
LACON*         CLOUDY    46  39  77 NE10      29.79R
LINCOLN*       CLOUDY    47  43  86 NE16G25   29.73R
SPRINGFIELD    CLOUDY    48  43  82 NE18G29   29.73R
TAYLORVILLE    CLOUDY    45  43  93 NE16G25   29.70R
$$

ILZ033-039-045-046-055>057-062-063-260300-
EAST-CENTRAL ILLINOIS

CITY           SKY/WX    TMP DP  RH WIND       PRES   REMARKS
CHAMPAIGN      CLOUDY    45  43  93 NE21G31   29.70R FOG
DANVILLE*      CLOUDY    45  41  88 NE18G24   29.70R
RANTOUL*       CLOUDY    46  44  91 NE20G25   29.72R
MATTOON        CLOUDY    46  43  89 NE21G28   29.67R
PARIS*         CLOUDY    46  43  89 NE16G25   29.69R
$$

ILZ079-100>102-260300-
SOUTHWEST ILLINOIS

CITY           SKY/WX    TMP DP  RH WIND       PRES   REMARKS
BELLEVILLE     CLOUDY    54  54 100 N8        29.64R
CAHOKIA*       CLOUDY    56  52  86 N15       29.65R
SPARTA*        CLOUDY    56  55  97 N12       29.63R
$$

ILZ064>066-069>071-074>076-080>082-084>086-088>090-092>094-260300-
SOUTH-CENTRAL ILLINOIS

CITY           SKY/WX    TMP DP  RH WIND       PRES   REMARKS
CARBONDALE     CLOUDY    61  58  90 NW8       29.59R
CAIRO*         CLOUDY    65  58  79 NW7       29.57R
EFFINGHAM*     CLOUDY    49  46  90 N9G18     29.67R
MARION         CLOUDY    63  61  94 CALM      29.58R
MT. VERNON     CLOUDY    55  50  82 N7        29.62R
CENTRALIA*     CLOUDY    53  51  92 N10G16    29.63R
SALEM*         CLOUDY    55  51  89 N13G21    29.64R
METROPOLIS*    PTCLDY    61  61 100 CALM      29.57R
$$

ILZ067-068-072-073-078-083-087-091-260300-
SOUTHEAST ILLINOIS

CITY           SKY/WX    TMP DP  RH WIND       PRES   REMARKS
LAWRENCEVILLE  CLOUDY    50  48  93 N16       29.63R
FLORA*         CLOUDY    52  50  93 N15       29.63R
FAIRFIELD*     CLOUDY    55  53  94 N7        29.61R
HARRISBURG*    LGT RAIN  59  59 100 N7        29.58R
ROBINSON*      CLOUDY    48  46  93 NE16      29.65R
CARMI*         CLOUDY    56  52  86 N10       29.58R
$$

ABBREVIATIONS USED IN REMARKS
   TC - TEMPERATURE IN CELSIUS
  WCI - WIND CHILL INDEX
   HX - HEAT INDEX
  VSB - VISIBILITY
$$




USA.gov is the U.S. government's official web portal to all federal, state and local government web resources and services.